Starlink 32844

operational
NORAD ID: 62820 Int'l Des: 2025-018 Owner: SPXS Country: US Constellation: starlink
LEOCIRCULAR

About Starlink 32844

Description loading...

Live Position

Loading 3D Globe...

Upcoming Passes

Altitude History

Altitude vs Time

uPlot chart will show altitude changes over time

Two-Line Element Set

1 62820U 25018Q 25304.46775992 .00028523 00000-0 97128-3 0 9997
2 62820 53.1591 189.8380 0001479 78.9904 281.1263 15.30205478 43385
Epoch: Oct 31, 2025 • Age: 29 hours

Current Status

Altitude 480.0 km
Velocity 7.63 km/s
Sub-Earth Point -16.57°S, 91.09°E
Launch Date Jan 24, 2025
Age 0.7 years
Type internet

Technical Details

Classification Payload
Mass 730.00 kg
Dry Mass 700.00 kg
Total Mass 730.00 kg
Length 0.30 m
Diameter 4.10 m
Span 29.00 m
Shape Box + pan
Manufacturer SPXS
Bus Type Starlink V2M
Phase Status In Orbit
Owner/State SPXS/US

Large Constellations

Loading constellations...